Location: Caltech
(34.1382°N, 118.1253°W)
Time: 10:33:11
(UTC-07:00)

Cosmos 2084 - Visible Passes

Search period start: 26 April 2017 00:00
Search period end: 06 May 2017 00:00
Orbit: 495 x 691 km, 62.8° (Epoch: 24 April)

Date Brightness Start Highest point End Pass type
(mag) Time Alt. Az. Time Alt. Az. Time Alt. Az.
26 Apr 6.3 22:32:57 10° N 22:33:06 11° N 22:33:06 11° N visible
27 Apr 6.1 22:41:08 10° N 22:41:45 14° N 22:41:45 14° N visible
28 Apr 6.1 22:49:41 10° NNW 22:50:26 15° NNW 22:50:26 15° NNW visible
29 Apr 5.7 21:21:34 10° NNE 21:22:34 11° NE 21:22:34 11° NE visible
29 Apr 6.3 22:58:32 10° NW 22:59:09 14° NW 22:59:09 14° NW visible
30 Apr 5.1 21:28:52 10° N 21:31:19 19° NE 21:31:19 19° NE visible
30 Apr 6.4 23:07:42 10° NW 23:07:55 11° NW 23:07:55 11° NW visible
01 May 4.4 21:37:07 10° NNW 21:40:08 33° NE 21:40:08 33° NE visible
02 May 3.7 21:45:43 10° NNW 21:48:59 57° N 21:48:59 57° N visible
03 May 5.5 20:17:08 10° NNE 20:18:42 12° NE 20:20:16 10° ENE visible
03 May 3.9 21:54:35 10° NW 21:57:53 51° W 21:57:53 51° W visible
04 May 4.9 20:24:46 10° N 20:27:46 21° NE 20:30:16 13° E visible
04 May 4.9 22:03:50 10° WNW 22:06:52 27° WSW 22:06:52 27° WSW visible
05 May 4.0 20:33:05 10° NNW 20:36:45 38° NE 20:39:18 18° ESE visible
05 May 5.8 22:13:45 10° W 22:15:55 14° WSW 22:15:55 14° WSW visible
